Hourly Weather Gogolewo

Today, 15 May, Saturday

Time Temperature Precipitation Wind Pressure Humidity
00:00 +8°C° 0.5 mm 4 mps 750 mmHg 96%
01:00 +7°C° 0 mm 4 mps 750 mmHg 97%
02:00 +7°C° 0.4 mm 4 mps 750 mmHg 97%
03:00 +7°C° 0.4 mm 3 mps 750 mmHg 96%
04:00 +7°C° 0.4 mm 3 mps 750 mmHg 96%
05:00 +8°C° 0 mm 3 mps 750 mmHg 93%
06:00 +9°C° 0 mm 3 mps 751 mmHg 89%
07:00 +10°C° 0 mm 3 mps 751 mmHg 86%
08:00 +11°C° 0 mm 3 mps 751 mmHg 81%
09:00 +13°C° 0 mm 3 mps 751 mmHg 75%
10:00 +14°C° 0 mm 3 mps 750 mmHg 70%
11:00 +16°C° 0.2 mm 3 mps 750 mmHg 66%
12:00 +17°C° 0.2 mm 3 mps 750 mmHg 63%
13:00 +18°C° 0.2 mm 4 mps 749 mmHg 59%
14:00 +18°C° 0.4 mm 3 mps 749 mmHg 63%
15:00 +17°C° 0.4 mm 3 mps 749 mmHg 67%
16:00 +17°C° 0.4 mm 3 mps 749 mmHg 71%
17:00 +16°C° 0.4 mm 3 mps 749 mmHg 76%
18:00 +14°C° 0.4 mm 3 mps 749 mmHg 80%
19:00 +13°C° 0.4 mm 3 mps 748 mmHg 84%
20:00 +12°C° 0 mm 3 mps 748 mmHg 86%
21:00 +11°C° 0 mm 3 mps 748 mmHg 88%
22:00 +10°C° 0 mm 3 mps 748 mmHg 90%
23:00 +10°C° 0.1 mm 3 mps 748 mmHg 92%

Tomorrow, 16 May, Sunday

Time Temperature Precipitation Wind Pressure Humidity
00:00 +10°C° 0.1 mm 3 mps 748 mmHg 93%
01:00 +9°C° 0.1 mm 3 mps 748 mmHg 94%
02:00 +9°C° 0.1 mm 3 mps 748 mmHg 95%
03:00 +9°C° 0.1 mm 3 mps 748 mmHg 96%
04:00 +8°C° 0.1 mm 3 mps 748 mmHg 96%
05:00 +9°C° 0.2 mm 3 mps 748 mmHg 94%
06:00 +10°C° 0.2 mm 4 mps 748 mmHg 92%
07:00 +11°C° 0.2 mm 4 mps 748 mmHg 90%
08:00 +12°C° 0.1 mm 4 mps 748 mmHg 83%
09:00 +13°C° 0.1 mm 5 mps 748 mmHg 76%
10:00 +14°C° 0.1 mm 5 mps 748 mmHg 69%
11:00 +14°C° 0.2 mm 5 mps 748 mmHg 67%
12:00 +15°C° 0.2 mm 5 mps 748 mmHg 65%
13:00 +15°C° 0.2 mm 5 mps 748 mmHg 63%
14:00 +15°C° 0.3 mm 5 mps 748 mmHg 62%
15:00 +17°C° 0.3 mm 4 mps 748 mmHg 61%
16:00 +17°C° 0.3 mm 4 mps 747 mmHg 61%
17:00 +16°C° 0.1 mm 3 mps 747 mmHg 67%
18:00 +13°C° 0.1 mm 3 mps 747 mmHg 73%
19:00 +13°C° 0.1 mm 2 mps 747 mmHg 79%
20:00 +12°C° 0.1 mm 2 mps 747 mmHg 83%
21:00 +10°C° 0.1 mm 2 mps 747 mmHg 86%
22:00 +9°C° 0.1 mm 2 mps 747 mmHg 90%
23:00 +8°C° 0 mm 2 mps 747 mmHg 92%

Day after tomorrow, 17 May, Monday

Time Temperature Precipitation Wind Pressure Humidity
00:00 +8°C° 0 mm 2 mps 747 mmHg 93%
01:00 +8°C° 0 mm 2 mps 747 mmHg 94%
02:00 +8°C° 0.2 mm 2 mps 747 mmHg 95%
03:00 +8°C° 0.2 mm 2 mps 747 mmHg 96%
04:00 +8°C° 0.2 mm 2 mps 747 mmHg 97%
05:00 +9°C° 0.1 mm 2 mps 747 mmHg 95%
06:00 +10°C° 0.1 mm 2 mps 747 mmHg 93%
07:00 +10°C° 0.1 mm 2 mps 747 mmHg 91%
08:00 +12°C° 0.2 mm 3 mps 747 mmHg 83%
09:00 +13°C° 0.2 mm 3 mps 747 mmHg 76%
10:00 +16°C° 0.2 mm 3 mps 747 mmHg 68%
11:00 +16°C° 0.5 mm 3 mps 747 mmHg 65%
12:00 +17°C° 0.5 mm 3 mps 747 mmHg 62%
13:00 +17°C° 0.5 mm 3 mps 747 mmHg 58%
14:00 +17°C° 0.2 mm 3 mps 747 mmHg 60%
15:00 +17°C° 0.2 mm 3 mps 747 mmHg 62%
16:00 +17°C° 0.2 mm 3 mps 747 mmHg 63%
17:00 +14°C° 0.5 mm 3 mps 747 mmHg 71%
18:00 +13°C° 0.5 mm 3 mps 748 mmHg 79%
19:00 +12°C° 0.5 mm 3 mps 748 mmHg 87%
20:00 +11°C° 0.1 mm 3 mps 748 mmHg 89%
21:00 +10°C° 0.1 mm 2 mps 748 mmHg 92%
22:00 +9°C° 0.1 mm 2 mps 748 mmHg 95%
23:00 +8°C° 0 mm 2 mps 748 mmHg 96%

18 May, Tuesday

Time Temperature Precipitation Wind Pressure Humidity
00:00 +8°C° 0 mm 2 mps 748 mmHg 96%
01:00 +8°C° 0 mm 2 mps 748 mmHg 97%
02:00 +7°C° 0 mm 2 mps 748 mmHg 97%
03:00 +7°C° 0 mm 2 mps 748 mmHg 97%
04:00 +6°C° 0 mm 2 mps 749 mmHg 97%
05:00 +8°C° 0 mm 3 mps 749 mmHg 96%
06:00 +9°C° 0 mm 3 mps 749 mmHg 95%
07:00 +10°C° 0 mm 3 mps 749 mmHg 94%
08:00 +10°C° 0.3 mm 4 mps 749 mmHg 92%
09:00 +10°C° 0.3 mm 4 mps 749 mmHg 91%
10:00 +10°C° 0.3 mm 5 mps 750 mmHg 89%
11:00 +10°C° 0.3 mm 5 mps 750 mmHg 86%
12:00 +12°C° 0.3 mm 5 mps 750 mmHg 83%
13:00 +12°C° 0.3 mm 5 mps 751 mmHg 80%
14:00 +12°C° 0.3 mm 5 mps 751 mmHg 78%
15:00 +13°C° 0.3 mm 5 mps 751 mmHg 76%
16:00 +13°C° 0.3 mm 4 mps 751 mmHg 74%
17:00 +12°C° 0.2 mm 4 mps 751 mmHg 78%
18:00 +12°C° 0.2 mm 4 mps 752 mmHg 81%
19:00 +11°C° 0.2 mm 3 mps 752 mmHg 85%
20:00 +10°C° 0 mm 3 mps 752 mmHg 88%
21:00 +9°C° 0 mm 3 mps 752 mmHg 91%
22:00 +8°C° 0 mm 3 mps 753 mmHg 94%
23:00 +7°C° 0 mm 3 mps 753 mmHg 94%

19 May, Wednesday

Time Temperature Precipitation Wind Pressure Humidity
00:00 +7°C° 0 mm 3 mps 753 mmHg 95%
01:00 +5°C° 0 mm 3 mps 754 mmHg 95%
02:00 +5°C° 0 mm 3 mps 754 mmHg 95%
03:00 +5°C° 0 mm 3 mps 754 mmHg 96%
04:00 +4°C° 0 mm 3 mps 754 mmHg 97%
05:00 +5°C° 0 mm 4 mps 754 mmHg 94%
06:00 +6°C° 0 mm 4 mps 755 mmHg 91%
07:00 +7°C° 0 mm 5 mps 755 mmHg 88%
08:00 +9°C° 0 mm 5 mps 755 mmHg 77%
09:00 +10°C° 0 mm 5 mps 755 mmHg 67%
10:00 +13°C° 0 mm 6 mps 755 mmHg 56%
11:00 +13°C° 0.1 mm 5 mps 755 mmHg 56%
12:00 +13°C° 0.1 mm 5 mps 755 mmHg 56%
13:00 +14°C° 0.1 mm 5 mps 755 mmHg 55%
14:00 +14°C° 0.3 mm 5 mps 755 mmHg 58%
15:00 +14°C° 0.3 mm 5 mps 754 mmHg 60%
16:00 +14°C° 0.3 mm 4 mps 754 mmHg 63%
17:00 +13°C° 0.6 mm 4 mps 754 mmHg 70%
18:00 +12°C° 0.6 mm 4 mps 755 mmHg 77%
19:00 +10°C° 0.6 mm 4 mps 755 mmHg 84%
20:00 +10°C° 0.2 mm 4 mps 755 mmHg 88%
21:00 +9°C° 0.2 mm 3 mps 755 mmHg 92%
22:00 +8°C° 0.2 mm 3 mps 755 mmHg 95%
23:00 +7°C° 0 mm 3 mps 755 mmHg 96%

20 May, Thursday

Time Temperature Precipitation Wind Pressure Humidity
00:00 +7°C° 0 mm 3 mps 755 mmHg 96%
01:00 +5°C° 0 mm 3 mps 755 mmHg 96%
02:00 +5°C° 0 mm 3 mps 755 mmHg 97%
03:00 +5°C° 0 mm 3 mps 756 mmHg 97%
04:00 +4°C° 0 mm 3 mps 756 mmHg 97%
05:00 +5°C° 0 mm 4 mps 756 mmHg 94%
06:00 +7°C° 0 mm 4 mps 756 mmHg 92%
07:00 +8°C° 0 mm 5 mps 756 mmHg 89%
08:00 +9°C° 0.1 mm 5 mps 756 mmHg 83%
09:00 +10°C° 0.1 mm 5 mps 756 mmHg 77%
10:00 +12°C° 0.1 mm 5 mps 755 mmHg 71%
11:00 +12°C° 0.2 mm 5 mps 755 mmHg 68%
12:00 +13°C° 0.2 mm 5 mps 755 mmHg 66%
13:00 +14°C° 0.2 mm 5 mps 755 mmHg 64%
14:00 +14°C° 0.1 mm 5 mps 754 mmHg 63%
15:00 +14°C° 0.1 mm 5 mps 754 mmHg 62%
16:00 +15°C° 0.1 mm 5 mps 753 mmHg 61%
17:00 +14°C° 0.2 mm 5 mps 753 mmHg 67%
18:00 +13°C° 0.2 mm 5 mps 753 mmHg 74%
19:00 +12°C° 0.2 mm 4 mps 752 mmHg 80%
20:00 +11°C° 0.3 mm 4 mps 752 mmHg 84%
21:00 +10°C° 0.3 mm 4 mps 752 mmHg 87%
22:00 +10°C° 0.3 mm 4 mps 752 mmHg 91%
23:00 +8°C° 0 mm 4 mps 751 mmHg 91%
Show more